Zurück zum Katalog

QIANFAN-54

AktivKommunikationPO
NORAD 62255·PAYLOAD·🇨🇳 China

Gestartet Dec 5, 2024 von Taiyuan Satellite Launch Center

Loading…

Nächste Überflüge (nächste 24 Stunden)

TLE

AktuellSource: Space-Track

Epoche: Sep 14, 2026, 20:33 UTC

1 62255U 24232U   26257.85647210  .00000088  00000-0  11757-3 0  9998
2 62255  89.0153  13.1670 0003630 133.1436 227.0019 13.51028613136695

Verfolge QIANFAN-54 in Echtzeit mit AllMySat

Download on the App Store